DW1083 Weather Reports


time (UTC)temp
C
wind
direction
speed
KPH
gust
KPH
rain 1hr
cm
rain 24hr
cm
rain mn
cm
humidity
%
barometer
mb
20260906063309 15 0 0.0 0.0 0.00 0.00 0.00 90 1026.7
20260906053311 12 0 0.0 0.0 0.00 0.00 0.00 94 1025.7
20260906050310 12 0 0.0 0.0 0.00 0.00 0.00 94 1025.8
20260906043310 12 0 0.0 0.0 0.00 0.00 0.00 94 1025.8
20260906040310 12 0 0.0 0.0 0.00 0.00 0.00 94 1026.0
20260906033310 12 0 0.0 0.0 0.00 0.00 0.00 94 1025.7
20260906030310 12 0 0.0 0.0 0.00 0.00 0.00 93 1025.9
20260906023310 13 0 0.0 0.0 0.00 0.00 0.00 93 1026.1
20260906013312 13 0 0.0 0.0 0.00 0.00 0.00 92 1026.1
20260906010310 13 0 0.0 0.0 0.00 0.00 0.00 92 1025.8
20260905233310 14 0 0.0 0.0 0.00 0.00 0.00 90 1025.9
20260905230309 14 0 0.0 0.0 0.00 0.00 0.00 89 1026.0
20260905223310 15 0 0.0 0.0 0.00 0.00 0.00 88 1026.0
20260905220309 15 0 0.0 0.0 0.00 0.00 0.00 87 1025.9
20260905213311 15 0 0.0 0.0 0.00 0.00 0.00 90 1025.4
20260905210309 15 0 0.0 0.0 0.00 0.00 0.00 86 1024.7
20260905200309 15 0 0.0 0.0 0.00 0.00 0.00 88 1024.5
20260905193309 16 0 0.0 0.0 0.00 0.00 0.00 83 1024.2
20260905190309 16 0 0.0 0.0 0.00 0.00 0.00 82 1023.6
20260905180309 17 0 0.0 0.0 0.00 0.00 0.00 85 1022.8
20260905173309 18 0 0.0 0.0 0.00 0.00 0.00 85 1022.0
20260905170309 18 0 0.0 0.0 0.00 0.00 0.00 84 1021.7
20260905163309 19 0 0.0 0.0 0.00 0.00 0.00 81 1021.6
20260905153309 21 0 0.0 0.0 0.00 0.00 0.00 76 1021.7
20260905150309 21 157 1.6 6.4 0.00 0.00 0.00 71 1021.7
20260905143308 22 292 3.2 8.0 0.00 0.00 0.00 71 1021.8
20260905140308 22 67 0.0 3.2 0.00 0.00 0.00 73 1021.9
20260905133308 22 135 0.0 1.6 0.00 0.00 0.00 76 1021.9
20260905130308 22 180 0.0 4.8 0.00 0.00 0.00 80 1021.7
20260905123313 22 0 0.0 0.0 0.00 0.00 0.00 76 1021.8
20260905120313 22 0 0.0 0.0 0.00 0.00 0.00 74 1021.6
20260905113313 22 0 0.0 0.0 0.00 0.00 0.00 78 1021.6
20260905110313 22 0 0.0 0.0 0.00 0.00 0.00 75 1021.3
20260905103313 22 0 0.0 0.0 0.00 0.00 0.00 72 1021.6
20260905100313 23 0 0.0 0.0 0.00 0.00 0.00 75 1021.8
20260905093313 22 0 0.0 0.0 0.00 0.00 0.00 76 1021.4
20260905090313 21 0 0.0 0.0 0.00 0.00 0.00 80 1021.0
20260905083312 21 0 0.0 0.0 0.00 0.00 0.00 79 1020.9
20260905080312 20 0 0.0 0.0 0.00 0.00 0.00 78 1020.6
20260905073312 20 0 0.0 0.0 0.00 0.00 0.00 83 1020.3
20260905070312 18 0 0.0 0.0 0.00 0.00 0.00 83 1020.4